O'Neill, NE

12:18 AM CDT on June 29, 2017 (GMT -0500)
The O'Neill Municipal-Baker

Weather History for KONL - October, 2014

Change the Weather History Date:

Tuesday, October 28, 2014

  Actual Average Record
Temperature  
Mean Temperature 42 °F -  
Max Temperature 52 °F 56 °F 86 °F (2001)
Min Temperature 31 °F 32 °F 15 °F (1952)
Degree Days  
Heating Degree Days 24    
Moisture  
Dew Point 29 °F    
Average Humidity 60    
Maximum Humidity 88    
Minimum Humidity 42    
Precipitation  
Precipitation 0.00 in - - ()
Sea Level Pressure  
Sea Level Pressure 30.08 in    
Wind  
Wind Speed 14 mph (WNW)    
Max Wind Speed 25 mph    
Max Gust Speed 36 mph    
Visibility 10 miles    
Events      
Averages and records for this station are not official NWS values.
T = Trace of Precipitation, MM = Missing Value Source: NWS Daily Summary

Daily Weather History Graph

Daily Weather History Graph

Search for Another Location

Airport or City:

Trip Planner

Search our weather history database for the weather conditions in past years. The results will help you decide how hot, cold, wet, or windy it might be!

Date:

Astronomy

Oct. 28, 2014 Rise Set
Actual Time 8:03 AM CDT 6:33 PM CDT
Civil Twilight 7:34 AM CDT 7:02 PM CDT
Nautical Twilight 7:01 AM CDT 7:35 PM CDT
Astronomical Twilight 6:28 AM CDT 8:07 PM CDT
Moon 12:36 PM CDT (10/28) 10:38 PM CDT (10/28)
Length of Visible Light 11h 27m
Length of Day
10h 29m
Waxing Crescent, 24% of the Moon is Illuminated
Oct 28
Waxing Crescent
Oct 30
First Quarter
Nov 6
Full
Nov 14
Last Quarter
Nov 22
New

Hourly Weather History & Observations

Time (CDT) Temp. Windchill Dew Point Humidity Pressure Visibility Wind Dir Wind Speed Gust Speed Precip Events Conditions
12:15 AM 42.8 °F 37.0 °F 30.7 °F 62% 29.98 in 10.0 mi WNW 10.4 mph - N/A   Clear
12:35 AM 41.7 °F 35.6 °F 30.2 °F 64% 29.98 in 10.0 mi West 10.4 mph - N/A   Clear
12:55 AM 40.6 °F 34.8 °F 29.8 °F 65% 29.97 in 10.0 mi West 9.2 mph - N/A   Clear
1:15 AM 40.3 °F 34.4 °F 29.8 °F 66% 29.97 in 10.0 mi West 9.2 mph - N/A   Clear
1:35 AM 40.1 °F 34.1 °F 29.3 °F 65% 29.97 in 10.0 mi West 9.2 mph - N/A   Clear
1:55 AM 38.7 °F 32.9 °F 29.1 °F 69% 29.98 in 10.0 mi WSW 8.1 mph - N/A   Clear
2:15 AM 38.7 °F 31.4 °F 29.3 °F 69% 29.98 in 10.0 mi WSW 11.5 mph - N/A   Clear
2:35 AM 39.6 °F 31.7 °F 29.5 °F 67% 29.98 in 10.0 mi West 13.8 mph - N/A   Clear
2:55 AM 41.0 °F 33.5 °F 29.7 °F 64% 29.99 in 10.0 mi West 13.8 mph - N/A   Clear
3:15 AM 41.2 °F 34.1 °F 29.3 °F 63% 29.99 in 10.0 mi West 12.7 mph 18.4 mph N/A   Clear
3:35 AM 41.2 °F 34.1 °F 28.9 °F 62% 30.00 in 10.0 mi West 12.7 mph - N/A   Clear
3:55 AM 42.3 °F 35.1 °F 28.4 °F 58% 30.00 in 10.0 mi West 13.8 mph - N/A   Clear
4:15 AM 43.3 °F 36.1 °F 28.0 °F 55% 30.00 in 10.0 mi West 15.0 mph - N/A   Clear
4:35 AM 42.8 °F 35.8 °F 27.7 °F 55% 30.00 in 10.0 mi West 13.8 mph - N/A   Clear
4:55 AM 43.0 °F 35.4 °F 27.5 °F 54% 30.00 in 10.0 mi West 16.1 mph 19.6 mph N/A   Clear
5:15 AM 42.8 °F 36.6 °F 27.5 °F 55% 30.01 in 10.0 mi West 11.5 mph - N/A   Clear
5:35 AM 41.9 °F 35.0 °F 27.5 °F 57% 30.01 in 10.0 mi West 12.7 mph - N/A   Clear
5:55 AM 41.9 °F 34.3 °F 27.3 °F 56% 30.02 in 10.0 mi West 15.0 mph - N/A   Clear
6:15 AM 42.4 °F 35.3 °F 27.5 °F 56% 30.02 in 10.0 mi West 13.8 mph 20.7 mph N/A   Clear
6:35 AM 42.8 °F 34.5 °F 28.4 °F 57% 30.03 in 10.0 mi WNW 18.4 mph 25.3 mph N/A   Clear
6:55 AM 42.8 °F 34.0 °F 28.6 °F 57% 30.04 in 10.0 mi WNW 20.7 mph 26.5 mph N/A   Clear
7:15 AM 41.5 °F 33.2 °F 29.3 °F 62% 30.04 in 10.0 mi WNW 17.3 mph 26.5 mph N/A   Clear
7:35 AM 40.6 °F 32.7 °F 28.8 °F 63% 30.05 in 10.0 mi WNW 15.0 mph - N/A   Clear
7:55 AM 39.7 °F 30.6 °F 28.4 °F 64% 30.05 in 10.0 mi WNW 18.4 mph 21.9 mph N/A   Clear
8:15 AM 40.1 °F 31.6 °F 29.3 °F 65% 30.06 in 10.0 mi West 16.1 mph 27.6 mph N/A   Clear
8:35 AM 40.1 °F 31.0 °F 29.3 °F 65% 30.06 in 10.0 mi WNW 18.4 mph 27.6 mph N/A   Clear
8:55 AM 40.5 °F 31.5 °F 29.8 °F 66% 30.07 in 10.0 mi WNW 18.4 mph 26.5 mph N/A   Clear
9:15 AM 41.4 °F 33.0 °F 30.0 °F 64% 30.07 in 10.0 mi WNW 17.3 mph 25.3 mph N/A   Clear
9:35 AM 42.1 °F 32.8 °F 30.0 °F 62% 30.09 in 10.0 mi WNW 21.9 mph 25.3 mph N/A   Clear
9:55 AM 43.0 °F 34.0 °F 30.0 °F 60% 30.09 in 10.0 mi WNW 21.9 mph 27.6 mph N/A   Clear
10:15 AM 43.7 °F 34.7 °F 30.2 °F 59% 30.10 in 10.0 mi WNW 23.0 mph 29.9 mph N/A   Clear
10:35 AM 44.2 °F 35.0 °F 30.0 °F 57% 30.10 in 10.0 mi WNW 25.3 mph 33.4 mph N/A   Clear
10:55 AM 45.0 °F 36.2 °F 30.4 °F 57% 30.10 in 10.0 mi NW 24.2 mph 32.2 mph N/A   Clear
11:15 AM 45.9 °F 38.3 °F 30.6 °F 55% 30.10 in 10.0 mi WNW 19.6 mph 27.6 mph N/A   Clear
11:35 AM 46.6 °F - 30.7 °F 54% 30.10 in 10.0 mi NW 18.4 mph 27.6 mph N/A   Clear
11:55 AM 47.3 °F - 30.7 °F 53% 30.11 in 10.0 mi WNW 24.2 mph 29.9 mph N/A   Clear
12:15 PM 48.2 °F - 30.2 °F 50% 30.11 in 10.0 mi WNW 21.9 mph 28.8 mph N/A   Clear
12:35 PM 49.1 °F - 30.0 °F 48% 30.10 in 10.0 mi WNW 25.3 mph 32.2 mph N/A   Clear
12:55 PM 48.9 °F - 29.3 °F 47% 30.10 in 10.0 mi WNW 25.3 mph 35.7 mph N/A   Clear
1:15 PM 50.0 °F - 30.2 °F 47% 30.11 in 10.0 mi WNW 21.9 mph 29.9 mph N/A   Clear
1:35 PM 50.2 °F - 30.2 °F 46% 30.10 in 10.0 mi WNW 18.4 mph 28.8 mph N/A   Clear
1:55 PM 50.5 °F - 30.2 °F 46% 30.10 in 10.0 mi WNW 21.9 mph 29.9 mph N/A   Clear
2:15 PM 51.8 °F - 29.7 °F 43% 30.09 in 10.0 mi NW 25.3 mph 28.8 mph N/A   Clear
2:35 PM 51.8 °F - 29.5 °F 42% 30.09 in 10.0 mi NW 20.7 mph 29.9 mph N/A   Clear
2:55 PM 52.0 °F - 29.7 °F 42% 30.09 in 10.0 mi WNW 21.9 mph 29.9 mph N/A   Clear
3:15 PM 52.0 °F - 30.6 °F 44% 30.09 in 10.0 mi NW 24.2 mph 31.1 mph N/A   Clear
3:35 PM 51.4 °F - 30.2 °F 44% 30.09 in 10.0 mi WNW 18.4 mph 24.2 mph N/A   Clear
3:55 PM 51.3 °F - 30.2 °F 44% 30.10 in 10.0 mi NW 17.3 mph - N/A   Clear
4:15 PM 52.0 °F - 30.4 °F 44% 30.10 in 10.0 mi NW 17.3 mph 25.3 mph N/A   Scattered Clouds
4:35 PM 51.3 °F - 30.2 °F 44% 30.10 in 10.0 mi NW 18.4 mph - N/A   Scattered Clouds
4:55 PM 51.3 °F - 30.2 °F 44% 30.10 in 10.0 mi NW 18.4 mph 25.3 mph N/A   Clear
5:15 PM 50.9 °F - 30.2 °F 45% 30.10 in 10.0 mi NW 16.1 mph 20.7 mph N/A   Clear
5:35 PM 50.2 °F - 30.2 °F 46% 30.11 in 10.0 mi NW 13.8 mph 23.0 mph N/A   Clear
5:55 PM 49.3 °F - 30.2 °F 48% 30.12 in 10.0 mi NW 17.3 mph - N/A   Clear
6:15 PM 47.7 °F - 30.7 °F 52% 30.12 in 10.0 mi NW 11.5 mph - N/A   Clear
6:35 PM 45.5 °F 41.3 °F 30.6 °F 56% 30.13 in 10.0 mi NW 8.1 mph - N/A   Clear
6:55 PM 41.0 °F 36.4 °F 30.2 °F 65% 30.13 in 10.0 mi NNW 6.9 mph - N/A   Clear
7:15 PM 40.1 °F 35.3 °F 30.0 °F 67% 30.14 in 10.0 mi NW 6.9 mph - N/A   Clear
7:35 PM 38.5 °F 32.7 °F 29.8 °F 71% 30.14 in 10.0 mi NNW 8.1 mph - N/A   Clear
7:55 PM 38.3 °F 33.9 °F 30.0 °F 72% 30.15 in 10.0 mi NNW 5.8 mph - N/A   Clear
8:15 PM 38.7 °F - 29.3 °F 69% 30.15 in 10.0 mi Calm Calm - N/A   Clear
8:35 PM 39.6 °F 37.4 °F 29.3 °F 67% 30.16 in 10.0 mi North 3.5 mph - N/A   Clear
8:55 PM 38.3 °F 35.9 °F 29.3 °F 70% 30.16 in 10.0 mi NW 3.5 mph - N/A   Clear
9:15 PM 37.8 °F - 29.7 °F 73% 30.16 in 10.0 mi Calm Calm - N/A   Clear
9:35 PM 37.8 °F 34.2 °F 29.3 °F 72% 30.16 in 10.0 mi WNW 4.6 mph - N/A   Clear
9:55 PM 37.4 °F 33.8 °F 29.3 °F 73% 30.17 in 10.0 mi WNW 4.6 mph - N/A   Clear
10:15 PM 35.8 °F 31.9 °F 29.3 °F 77% 30.17 in 10.0 mi West 4.6 mph - N/A   Clear
10:35 PM 34.7 °F 31.8 °F 28.9 °F 79% 30.18 in 10.0 mi West 3.5 mph - N/A   Clear
10:55 PM 35.6 °F 31.7 °F 29.3 °F 78% 30.18 in 10.0 mi WNW 4.6 mph - N/A   Clear
11:15 PM 34.3 °F 30.2 °F 28.4 °F 79% 30.18 in 10.0 mi West 4.6 mph - N/A   Clear
11:35 PM 31.3 °F 26.6 °F 28.2 °F 88% 30.19 in 10.0 mi West 4.6 mph - N/A   Clear
11:55 PM 32.0 °F 24.8 °F 26.6 °F 80% 30.19 in 10.0 mi West 8.1 mph - N/A   Clear